Flag for Germany Weather past 2 weeks in Schleswig, Schleswig-Holstein, Germany

Now
52 °F

Passing clouds.


Feels Like: 52 °F
Forecast: 53 / 75 °F
Wind: 1 mph from Northwest

Location: Schleswig

Current Time: Aug 2, 2015 at 2:52:54 AM

Latest Report: Aug 2, 2015 at 2:00 AM


Visibility: 19 mi

Pressure: 30.07 "Hg

Humidity: 94%

Dew point: 50 °F

Location of SchleswigLocation

Historic Weather in Schleswig — Graph

°F

Schleswig temperature yesterday

Maximum temperature yesterday: 65 °F (at 5:00 PM)
Minimum temperature yesterday: 46 °F (at 4:00 AM)
Average temperature yesterday: 57 °F

Past Weeks' High & Low Weather Summary

 TemperatureHumidityPressure
High76 °F (Jul 22, 3:00 PM)100% (Jul 21, 8:00 AM)30.10 "Hg (Jul 21, 8:00 AM)
Low46 °F (Aug 1, 4:00 AM)48% (Aug 1, 4:00 PM)29.38 "Hg (Jul 28, 3:00 AM)
Average60 °F82%29.79 "Hg
* Reported Jul 18 1:00 AM — Aug 2 1:00 AM, Schleswig, Weather by CustomWeather, © 2015

Note: Actual official high and low records may vary slightly from our data, if they occured in-between our weather recording intervals... More about our weather records

Advertising

Schleswig weather history for previous 24 hours

 ConditionsComfort  
Time TempWeatherWind HumidityBarometerVisibility
1:00 AM
Sun, Aug 2
56 °FPassing clouds.2 mph81%30.06 "Hg19 mi
8:00 PM
Sat, Aug 1
62 °FOvercast.3 mph62%30.05 "Hg19 mi
7:00 PM63 °FPartly sunny.3 mph62%30.04 "Hg19 mi
6:00 PM64 °FPartly sunny.5 mph60%30.04 "Hg28 mi
5:00 PM65 °FPartly sunny.3 mph52%30.04 "Hg28 mi
4:00 PM65 °FScattered clouds.2 mph48%30.05 "Hg28 mi
3:00 PM64 °FPartly sunny.2 mph50%30.06 "Hg28 mi
2:00 PM64 °FPartly sunny.2 mph50%30.07 "Hg28 mi
1:00 PM63 °FPartly sunny.3 mph51%30.08 "Hg25 mi
12:00 PM63 °FScattered clouds.2 mph56%30.08 "Hg22 mi
11:00 AM60 °FScattered clouds.2 mph62%30.08 "Hg19 mi
10:00 AM59 °FScattered clouds.2 mph71%30.09 "Hg19 mi
9:00 AM55 °FScattered clouds.2 mph81%30.09 "Hg19 mi
8:00 AM50 °FPartly sunny.2 mph90%30.09 "Hg14 mi
7:00 AM48 °FPartly sunny.2 mph94%30.09 "Hg14 mi
4:00 AM46 °FPassing clouds.2 mph97%30.09 "Hg12 mi
3:00 AM47 °FPassing clouds.2 mph95%30.09 "Hg16 mi
2:00 AM47 °FPassing clouds.2 mph94%30.10 "Hg16 mi
Weather by CustomWeather, © 2015

See weather overviewHow to use our weather pages